Simultaneous Nadir Overpasses (SNOs) Predictions

Prediction of SNOs between LANDSAT-8 and NOAA-19 Satellite Orbit:

Table of predicted SNOs for the next 14.0 days since TLE Epoch: 10/23/2015
Index Date (LANDSAT-8) Time (LANDSAT-8) Lat,Lon (LANDSAT-8) SZA (LANDSAT-8 ) Date (NOAA-19) Time (NOAA-19) Lat,Lon (NOAA-19) SZA (NOAA-19 ) Distance(km) Time Diff (sec)
1 10/24/2015 04:29:01 -73.77, -64.58 94.59 10/24/2015 04:28:15 -73.75, -64.61 94.62 2.82 46
2 10/24/2015 05:18:29 73.64, 102.78 85.29 10/24/2015 05:19:21 73.67, 102.81 85.32 3.14 52
3 10/26/2015 10:02:46 73.71, 31.85 86.12 10/26/2015 10:02:37 73.74, 31.87 86.15 3.50 9
4 10/26/2015 10:52:16 -73.59,-160.78 94.00 10/26/2015 10:53:29 -73.60,-160.52 93.97 8.23 73
5 10/28/2015 14:47:02 73.82, -38.99 86.98 10/28/2015 14:45:53 73.82, -39.10 86.97 3.52 69
6 10/28/2015 15:36:32 -73.70, 128.39 93.14 10/28/2015 15:36:46 -73.72, 128.41 93.11 2.81 14
7 10/30/2015 20:20:48 -73.80, 57.53 92.31 10/30/2015 20:20:02 -73.80, 57.44 92.31 2.77 46
8 10/30/2015 21:10:15 73.71,-135.02 87.61 10/30/2015 21:11:07 73.69,-135.07 87.60 2.52 52
9 11/02/2015 01:54:32 73.75, 153.99 88.36 11/02/2015 01:54:22 73.75, 154.04 88.36 1.52 10
10 11/02/2015 02:44:02 -73.63, -38.62 91.75 11/02/2015 02:45:15 -73.63, -38.40 91.74 7.05 73
11 11/04/2015 06:38:48 73.82, 83.09 89.13 11/04/2015 06:37:37 73.81, 83.12 89.11 2.38 71
12 11/04/2015 07:28:17 -73.76,-109.41 90.93 11/04/2015 07:28:32 -73.77,-109.52 90.92 3.36 15




NCC Satellite Simultaneous Nadir Overpasses (SNOs) Prediction Service
